OBJECT A, 61227

Orbit data source: Space-Track

You're viewing an Uncataloged Satellite

Recently launched and/or uncataloged satellites may have evolving metadata. Metadata may include but not limited to: Owner, Maufacturer, Bus, Motor, and Mission.

OBJECT A, 61227 is a Chinese satellite in SSO that was launched on Tue, 24 Sep 2024 UTC via a JIELONG-3 launch vehicle from the Yellow Sea Launch Area, China (YSLA). Unknown objects in Earth's orbit typically refer to objects detected orbiting the Earth but have not yet been identified or cataloged. These objects could be anything from previously untracked satellites, spent rocket stages, debris from satellite collisions, or even natural meteoroids temporarily captured by Earth's gravity.

Loading next visibility...
OBJECT A details
Identifier
61227, 2024-173A
Orbit
SSO
Last TLE update9 hours ago
Origin
Flag of CNJTXZ (CN / PRC)
ManufacturerTaizhou Xingkong
MissionOperational spacecraft
Bus & MotorJTX, Unknown motor
Mass~50 kg wet, ~50 kg dry
Launch date (UTC)
2024-09-24 (3 months ago)
Launch vehicle
JIELONG-3
Launch site
Yellow Sea Launch Area, China (YSLA)
Object typeUnknown
Shape & HBRUnknown
Radar Cross SectionMedium (>0.1 m² and <1 m²)

Expand to show TLE details & history

TLE from 9 hours ago
0 OBJECT A
1 61227U 24173A   24356.13238487  .00003982  00000-0  14096-3 0  9996
2 61227  97.3982  68.2790 0008651 345.6932  14.4062 15.29694682 13421
Epoch: 2024-12-21T03:10Z
Definitive object data (Epoch: 2024-12-21T03:10:38.052Z)
Latitude-0.00005°
Longitude-69.56747°
Altitude474.083 km
Speed7.632 km/s
True Right ascension04h 33m 06s
True Declination0° 00' 00"
Sunlit
Object was in full shadow at TLE epoch
Visualization TLE readout
Latitude-14.57857°
Longitude-67.25495°
Altitude476.905 km
Speed7.63 km/s
Apparent Right ascension02h 35m 28s
Apparent Declination-32° 29' 50"
Sunlit
Object is in full shadow
Visualization observer readout
Local Sidereal Time11:33:48
Azimuth266.933° W
Elevation-53.018°
Doppler factor1
Orbital elements
Apogee altitude479.604 km
Perigee altitude467.749 km
Semi-major axis6,851.814 km
Eccentricity0.0008651
Inclination97.3982°
RAAN68.279°
Arg. of periapsis345.6932°
True anomaly14.43089°
Mean anomaly14.4062°
Eccentric anomaly14.41854°
Mean motion3.82679 °/min
BSTAR0.00014096
Orbital period94.07 mins
Loading maneuver chart data...
Loading historical data...
Loading historical data...
Loading historical data...
Loading historical data...
Loading historical data...
Loading historical data...
Loading historical data...

OBJECT A Visibility forecast

Observer location: undefined°, undefined

Span
Click to sort rows by Start time (UTC) header in descending order
Start Az.
Max El. time (UTC)
Max El. Az.
Max El.
End time (UTC)
End Az.
6 mins2024-12-21 17:51:59.865Z14.152° NNE2024-12-21 17:54:59.865Z121.519° SE44.725°2024-12-21 17:57:59.865Z189.93° SSW
4 mins2024-12-22 04:26:59.865Z115.044° SE2024-12-22 04:28:59.865Z65.674° ENE23.274°2024-12-22 04:30:59.865Z22.141° NNE
|